Location: Newark
(44.3248°N, 23.7839°E)
Time: 06:06:32
(UTC+00:00)

FO-29 - Pass Details

Date: 26 April 2024
Orbit: 801 x 1320 km, 98.6° (Epoch: 28 May)

Event Time Altitude Azimuth Distance (km) Brightness Sun altitude
Rises 23:23:44 0° 19° (NNE) 4,240 14.0 -30.1°
Reaches altitude 10° 23:26:38 10° 27° (NNE) 3,308 13.2 -30.0°
Maximum altitude 23:33:50 40° 95° (E) 1,865 11.0 -29.5°
Enters shadow 23:36:30 31° 134° (SE) 2,126 11.0 -29.4°
